Vorticity
28 12 4 11 6 8 11 1 5 -4 -6 -1 11 13 11 9 5 6 12 9 4 7 2 14 9 13 11 7 14 11 14 3 2 5 7 2 6 18 16 14 15 4 -0
1 8 5 -5 -19 -13 9 20 10 13 10 14 7 11 10 11 17 12 8 8 10 9 10 2 -6 5 -4 19 13 15 12 11 24 8 27 9 5 19 14 12 19 8 -6
26 23 21 19 16 16 12 18 18 14 12 11 14 12 11 9 9 10 12 8 5 5 5 14 13 12 13 -4 7 16 19 18 23 15 23 5 16 15 10 9 15 5 1
12 16 19 20 19 19 17 12 15 10 19 23 17 20 26 24 24 13 5 8 7 6 11 6 6 6 4 7 -2 9 9 9 17 19 10 7 19 8 6 6 6 12 3
9 10 12 11 15 16 21 22 8 30 33 36 40 27 22 23 21 25 35 26 13 13 16 6 -4 21 3 5 7 4 8 17 19 15 15 15 6 3 10 8 6 5 4
15 12 9 10 21 12 7 13 12 3 23 28 6 13 22 15 22 15 16 19 43 26 -5 -13 -2 31 8 8 -1 5 16 20 12 16 15 41 13 9 4 8 2 8 3
11 13 19 22 4 2 5 6 -1 6 14 32 21 21 32 16 18 8 17 25 27 23 -0 19 2 4 7 1 10 17 12 13 8 17 18 10 6 4 5 9 8 5 5
13 17 14 10 3 8 8 -2 3 1 2 4 11 22 24 27 15 29 15 32 3 -4 23 6 39 -2 9 6 9 11 11 13 14 34 15 7 2 8 3 7 7 7 10
14 21 7 9 5 2 -6 13 7 11 -1 -1 9 29 21 38 35 15 -1 14 -3 36 30 19 29 12 23 18 9 13 4 22 25 7 7 8 5 6 7 5 8 12 12
12 6 6 2 8 6 5 -1 3 1 9 -2 8 25 24 43 31 11 11 -6 15 32 14 36 -2 15 12 18 11 15 6 28 16 4 5 4 7 5 4 8 11 13 10
1 5 5 2 3 3 9 9 6 6 6 3 4 2 27 35 35 31 32 -8 21 43 4 6 13 20 17 8 4 11 19 18 8 7 8 6 6 6 7 11 11 7 10
16 7 6 6 7 6 9 9 7 10 9 3 1 -3 36 22 31 20 5 -6 33 15 15 10 19 8 6 7 14 21 25 19 11 5 3 5 5 7 9 10 11 11 9
18 9 7 3 9 10 9 17 20 21 9 -3 -4 0 39 24 31 26 23 31 24 22 20 15 9 10 12 18 17 13 12 6 4 6 6 6 6 8 11 11 11 10 8
7 5 4 10 7 15 5 23 41 35 18 29 27 34 39 29 25 18 16 16 12 8 9 11 15 15 19 16 11 5 4 3 5 7 7 7 9 10 12 13 12 12 9
7 9 6 13 13 21 26 15 40 28 14 16 16 35 14 9 7 6 5 4 6 11 14 14 13 10 4 4 4 3 6 7 6 5 7 9 8 11 12 11 12 13 10
3 12 7 20 19 20 5 21 46 18 24 19 12 14 6 10 10 12 9 16 15 9 6 5 4 2 4 4 5 5 6 5 7 8 7 7 9 9 9 9 9 9 10
15 8 19 6 21 18 23 26 -5 30 19 24 34 17 12 0 5 7 6 4 4 6 5 5 4 6 5 6 5 6 9 8 8 7 8 8 9 8 6 9 10 12 11
13 12 15 12 13 5 11 3 28 12 26 17 10 11 9 17 1 -0 3 3 6 4 6 8 8 6 6 7 9 9 9 7 7 7 9 12 7 6 10 9 9 7 7
16 14 18 26 21 21 9 26 11 9 6 6 11 11 7 2 3 5 4 4 5 5 7 7 8 7 5 4 5 6 8 8 9 14 15 10 7 9 8 9 7 6 7
25 31 20 20 16 0 6 2 1 2 4 10 9 2 -2 -1 -2 -1 1 3 7 8 8 9 10 11 12 14 15 15 16 15 12 11 6 6 10 10 7 4 5 8 9
15 26 16 12 12 12 14 13 12 13 11 11 9 13 13 10 9 8 8 10 9 10 9 9 10 10 11 11 11 12 12 11 12 11 10 11 8 7 9 12 14 11 9
17 7 14 19 20 20 20 19 18 16 16 17 17 18 18 18 17 18 17 17 17 17 18 18 15 13 11 9 10 9 9 9 10 10 11 13 15 15 14 13 11 12 14
13 8 5 5 5 5 5 7 8 9 9 9 9 10 10 11 13 15 17 18 18 20 18 16 21 24 18 12 15 16 16 16 17 17 15 14 14 14 14 15 13 11 11
12 12 9 7 5 7 9 10 10 12 13 14 16 17 18 19 21 23 22 21 20 20 20 22 26 21 19 20 18 20 18 16 15 15 15 15 14 14 12 12 12 12 12
12 12 10 6 8 10 11 13 13 13 15 19 20 20 18 19 19 17 13 11 16 18 16 16 17 19 19 18 19 16 14 14 14 13 14 13 13 13 12 8 6 7 9
14 8 6 9 11 11 12 11 13 16 17 19 17 19 22 22 19 12 13 11 10 11 7 9 15 17 17 18 17 15 14 13 11 9 7 7 8 9 9 9 9 10 12
Height
5682 5679 5677 5674 5673 5671 5669 5668 5666 5663 5661 5659 5657 5657 5657 5655 5654 5653 5652 5652 5652 5652 5652 5652 5652 5652 5652 5651 5651 5652 5652 5653 5653 5652 5651 5651 5649 5648 5647 5647 5649 5651 5651
5669 5666 5664 5662 5660 5657 5654 5652 5649 5645 5642 5640 5638 5638 5637 5635 5635 5634 5634 5635 5635 5635 5637 5638 5639 5638 5638 5638 5637 5637 5638 5638 5638 5637 5637 5637 5638 5636 5635 5636 5638 5639 5639
5656 5653 5650 5648 5646 5643 5640 5637 5633 5629 5625 5622 5619 5616 5614 5614 5614 5614 5615 5615 5616 5618 5620 5623 5623 5624 5624 5622 5622 5621 5621 5622 5622 5622 5623 5625 5625 5625 5624 5625 5627 5626 5626
5638 5635 5633 5630 5627 5625 5621 5618 5613 5609 5606 5601 5597 5592 5589 5589 5590 5590 5591 5593 5596 5599 5603 5606 5608 5609 5608 5608 5608 5608 5607 5608 5607 5608 5610 5611 5611 5612 5613 5614 5614 5614 5613
5623 5621 5617 5615 5612 5608 5605 5601 5597 5592 5586 5580 5575 5572 5568 5566 5566 5566 5567 5571 5575 5581 5586 5588 5592 5592 5593 5594 5595 5594 5594 5594 5594 5595 5596 5597 5598 5600 5601 5602 5602 5602 5601
5611 5607 5604 5602 5599 5596 5593 5589 5585 5580 5574 5567 5562 5557 5551 5549 5548 5549 5550 5553 5556 5564 5569 5572 5576 5573 5579 5580 5581 5581 5580 5580 5580 5583 5583 5584 5587 5589 5590 5590 5590 5590 5588
5598 5594 5591 5590 5588 5584 5581 5577 5573 5569 5562 5556 5548 5542 5535 5533 5533 5535 5538 5540 5543 5546 5551 5555 5559 5562 5565 5565 5568 5568 5567 5567 5569 5571 5572 5574 5577 5578 5579 5579 5579 5578 5576
5585 5583 5582 5579 5577 5574 5571 5567 5564 5558 5552 5545 5536 5530 5524 5517 5520 5522 5525 5526 5529 5533 5533 5540 5543 5549 5550 5552 5554 5555 5556 5557 5558 5560 5562 5564 5566 5567 5567 5567 5567 5566 5564
5574 5572 5571 5568 5566 5563 5560 5556 5552 5547 5540 5533 5525 5518 5510 5504 5506 5510 5512 5515 5517 5520 5524 5527 5530 5535 5538 5539 5541 5543 5545 5546 5548 5549 5551 5554 5556 5556 5557 5556 5555 5555 5553
5563 5562 5560 5558 5555 5552 5548 5544 5540 5535 5529 5523 5517 5508 5499 5492 5493 5497 5501 5504 5507 5510 5514 5515 5517 5523 5526 5529 5530 5533 5534 5538 5539 5539 5542 5544 5546 5547 5546 5545 5544 5543 5542
5552 5551 5550 5548 5544 5541 5536 5531 5526 5523 5518 5512 5507 5500 5492 5486 5483 5485 5490 5493 5497 5499 5500 5503 5508 5513 5515 5519 5522 5523 5525 5528 5529 5529 5532 5535 5537 5537 5536 5535 5534 5533 5532
5541 5540 5539 5537 5533 5529 5525 5519 5514 5510 5507 5502 5497 5491 5486 5480 5478 5480 5482 5486 5488 5491 5494 5496 5500 5504 5507 5510 5513 5514 5517 5519 5519 5520 5523 5526 5527 5526 5525 5524 5523 5522 5522
5531 5530 5527 5524 5521 5517 5511 5505 5500 5496 5493 5491 5487 5483 5478 5475 5475 5476 5477 5479 5482 5485 5487 5490 5494 5497 5499 5501 5505 5507 5509 5511 5511 5513 5515 5516 5516 5515 5515 5514 5513 5512 5512
5521 5519 5516 5513 5509 5503 5498 5492 5485 5480 5479 5479 5478 5475 5471 5471 5472 5474 5476 5477 5477 5479 5483 5486 5489 5492 5494 5496 5498 5498 5500 5502 5503 5505 5506 5506 5506 5505 5504 5503 5502 5502 5501
5511 5508 5505 5502 5497 5492 5486 5478 5471 5468 5469 5471 5471 5470 5469 5471 5472 5473 5473 5474 5477 5478 5479 5481 5485 5487 5488 5489 5490 5492 5493 5494 5495 5496 5496 5496 5495 5494 5493 5492 5491 5490 5490
5501 5498 5495 5491 5486 5483 5477 5468 5463 5462 5462 5464 5466 5466 5466 5468 5469 5469 5470 5472 5473 5475 5476 5478 5479 5480 5481 5482 5483 5484 5485 5485 5486 5485 5485 5485 5485 5484 5483 5482 5480 5478 5478
5491 5488 5484 5482 5478 5474 5469 5465 5461 5460 5459 5460 5461 5461 5463 5464 5466 5467 5468 5469 5470 5471 5471 5472 5473 5473 5474 5474 5474 5474 5475 5475 5475 5475 5474 5474 5473 5473 5473 5471 5469 5467 5466
5481 5478 5475 5473 5471 5468 5465 5462 5459 5458 5458 5459 5460 5460 5460 5461 5462 5463 5464 5464 5464 5464 5464 5465 5465 5465 5465 5465 5464 5464 5464 5464 5463 5463 5463 5462 5462 5461 5460 5459 5457 5456 5454
5471 5468 5466 5464 5463 5462 5460 5459 5459 5458 5458 5458 5457 5457 5457 5457 5458 5458 5458 5457 5457 5456 5456 5455 5455 5455 5454 5454 5453 5452 5451 5451 5452 5452 5451 5450 5449 5448 5447 5446 5444 5443 5442
5463 5459 5458 5457 5457 5456 5456 5456 5455 5455 5455 5455 5454 5453 5452 5452 5451 5450 5449 5448 5447 5446 5445 5444 5444 5443 5442 5441 5440 5439 5438 5438 5438 5439 5438 5437 5436 5435 5434 5432 5431 5429 5428
5458 5454 5453 5453 5452 5451 5451 5451 5450 5449 5449 5448 5447 5446 5444 5442 5441 5439 5438 5436 5435 5434 5433 5432 5431 5430 5429 5429 5427 5427 5426 5425 5426 5425 5425 5424 5422 5421 5420 5418 5417 5416 5414
5454 5452 5451 5449 5448 5447 5447 5446 5445 5444 5442 5441 5439 5437 5435 5432 5430 5428 5426 5424 5422 5420 5419 5418 5417 5416 5416 5415 5414 5414 5414 5413 5412 5411 5411 5410 5409 5407 5406 5405 5404 5402 5400
5451 5449 5448 5447 5446 5445 5444 5442 5440 5438 5436 5434 5431 5428 5425 5422 5419 5417 5414 5412 5410 5408 5407 5405 5404 5403 5403 5402 5402 5401 5401 5400 5399 5399 5398 5397 5396 5395 5393 5392 5391 5389 5387
5446 5446 5445 5444 5443 5441 5439 5437 5434 5431 5428 5424 5421 5417 5413 5411 5408 5406 5404 5402 5400 5398 5396 5394 5393 5392 5392 5391 5390 5390 5389 5388 5388 5387 5386 5385 5384 5383 5381 5380 5378 5376 5373
5442 5442 5441 5440 5438 5436 5434 5431 5427 5423 5419 5415 5411 5407 5404 5401 5400 5398 5397 5395 5393 5391 5389 5387 5386 5384 5383 5382 5381 5381 5380 5379 5378 5377 5376 5375 5373 5372 5370 5368 5366 5363 5361
5439 5438 5438 5436 5434 5432 5429 5425 5421 5417 5412 5408 5404 5400 5397 5394 5393 5392 5391 5389 5388 5386 5384 5382 5380 5379 5377 5376 5375 5374 5372 5371 5370 5368 5367 5365 5363 5360 5358 5355 5353 5350 5347